Location: Yucca Valley
(34.1140°N, 116.4310°W)
Time: 08:55:25
(UTC-08:00)

Daily predictions for brighter satellites

Satellite Brightness Start Highest point End
(mag) Time Altitude Azimuth Time Altitude Azimuth Time Altitude Azimuth
ATLAS 2A CENTAUR R/B 4.5 17:54:06 10° WSW 18:00:50 57° S 18:29:40 10° ESE
Gbstr 26 Del rocket 3.8 18:02:51 10° WSW 18:06:37 41° NW 18:10:11 10° NNE
Cosmos 1812 3.8 18:03:37 10° NNW 18:07:22 50° W 18:11:05 10° S
DELTA 2 R/B (1) 3.6 18:02:47 10° WNW 18:08:26 81° NNE 18:14:03 10° ESE
COSMOS 2428 3.7 18:06:15 10° N 18:10:52 25° ENE 18:15:28 10° ESE
COSMO-SKYMED 1 3.5 18:07:04 10° N 18:11:18 53° WNW 18:15:31 10° SSW
Resurs 01 Rocket 3.0 18:09:40 10° ESE 18:12:46 19° ENE 18:15:52 10° NNE
Cosmos 1238 Rocket 2.6 18:10:39 10° N 18:13:27 38° E 18:16:22 10° SSE
Meteor 2-4 Rocket 4.2 18:11:18 10° NNE 18:16:15 34° ENE 18:21:06 10° SE
Atlas Centaur 2 4.3 18:11:41 10° S 18:16:17 17° SSE 18:20:24 10° ESE
Cosmos 1536 3.2 18:13:23 10° SSE 18:17:07 40° E 18:20:52 10° NNE
Meteor 1-13 Rocket 4.2 18:12:42 10° N 18:18:14 62° E 18:23:52 10° SSE
BREEZE-M DEB (TANK) 3.9 18:17:11 10° N 18:19:24 19° NE 18:22:41 12° E
Cosmos 1850 Rocket 4.0 18:14:46 10° S 18:19:59 67° ESE 18:25:18 10° NNE
Cosmos 2360 Rocket 2.2 18:17:09 10° NNW 18:22:49 71° ENE 18:28:26 10° SSE
Cosmos 2219 Rocket 3.6 18:19:14 10° NNE 18:22:50 17° ENE 18:25:25 13° E
Okean 1 4.3 18:20:24 10° NNW 18:24:22 52° W 18:28:18 10° S
Cosmos 2219 3.2 18:19:13 10° S 18:24:53 65° ESE 18:30:34 10° NNE
Cosmos 2227 Rocket 3.5 18:24:46 10° SE 18:28:29 18° E 18:31:29 12° ENE
OTV 4 1.1 18:29:17 10° SW 18:32:06 40° SSE 18:33:37 22° E
Okean 1 Rocket 3.1 18:31:52 10° S 18:36:21 87° W 18:40:51 10° N
BREEZE-M DEB (TANK) 2.8 18:32:00 10° NW 18:38:38 81° NE 18:40:37 18° SE
Cosmos 2181 Rocket 4.1 18:34:16 10° N 18:40:36 88° W 18:46:58 10° S
Cosmos 1340 3.9 18:40:19 10° NNW 18:43:57 45° W 18:47:33 10° SSW
Cosmos 2074 Rocket 3.9 18:40:54 10° S 18:47:04 67° E 18:53:17 10° NNE
ALOS 2.2 18:45:14 10° SSE 18:49:51 70° ENE 18:54:31 10° N
Cosmos 1025 Rocket 3.1 18:46:31 10° N 18:50:48 51° E 18:55:04 10° SSE
Meteor 1-11 Rocket 4.5 18:46:02 10° SSW 18:51:43 58° W 18:57:33 10° N
Cosmos 2184 Rocket 3.9 18:46:10 10° S 18:52:27 71° E 18:58:41 10° N
FREGAT/IRIS 3.9 18:53:07 10° S 18:56:04 43° W 18:59:02 10° NNW
Abrixas rocket 4.1 18:53:33 10° W 18:56:27 26° NNW 18:58:29 15° NNE
Tiangong 2 3.9 18:58:49 10° WSW 19:00:32 14° SW 19:02:15 10° S
Cosmos 1544 Rocket 3.8 19:00:34 10° SSE 19:04:40 43° E 19:08:45 10° NNE
Cosmos 2333 Rocket 2.9 19:00:15 10° N 19:05:20 31° ENE 19:05:59 31° ENE
Meteor 2-13 Rocket 4.4 19:00:25 10° S 19:06:20 60° E 19:12:19 10° NNE
Genesis I 3.3 19:04:13 10° NNW 19:08:09 75° WSW 19:10:17 25° SSE
ATLAS CENTAUR R/B 1.3 19:04:01 10° SW 19:09:20 90° SSW 19:09:45 64° NE
GPS 2-04 Rocket1 2.9 19:05:38 10° W 19:09:55 74° N 19:11:01 48° ENE
FENGYUN 3A 3.8 19:04:39 10° S 19:10:03 78° WSW 19:15:30 10° NNW
CZ-3C R/B 3.1 19:08:02 10° WSW 19:12:16 15° SSW 19:14:07 12° S
Okean 1-7 Rocket 4.2 19:09:50 10° NNW 19:14:16 59° W 19:18:38 10° S
Nadezhda 3 Rocket 4.3 19:09:15 10° N 19:15:02 41° E 19:16:26 36° ESE
BREEZE-M DEB (TANK) 4.1 19:13:43 10° W 19:17:00 24° NW 19:17:49 21° N
Cosmos 2341 Rocket 4.3 19:13:16 10° SSE 19:19:11 43° E 19:25:09 10° NNE
GEOS 3 Rocket 4.0 19:14:26 10° NNE 19:19:38 63° NW 19:24:51 10° SW
OAO 3 Rocket 3.6 19:16:26 10° SW 19:21:07 44° SSE 19:21:24 43° SE
Cosmos 2154 Rocket 3.9 19:15:31 10° S 19:21:45 63° E 19:28:01 10° NNE
Hubble Space Telescope 1.8 19:20:04 10° WSW 19:23:37 34° S 19:23:37 34° S
NOSS 0 Rocket 4.1 19:19:37 10° N 19:25:33 48° ENE 19:26:11 46° E
Cosmos 2285 Rocket 3.9 19:20:58 10° NNW 19:27:25 83° ENE 19:32:09 19° SSE
Cosmos 2082 3.6 19:24:04 10° S 19:29:40 59° ESE 19:30:32 53° ENE
CZ-2D R/B 3.5 19:34:42 64° WNW 19:34:42 64° WNW 19:38:16 10° NNW
H-2A R/B 3.8 19:33:11 19° SSW 19:35:32 43° W 19:39:07 10° NNW
Cosmos 405 Rocket 3.8 19:31:33 10° N 19:34:09 38° N 19:34:09 38° N
Helios 1A 3.5 19:37:02 50° NNW 19:37:02 50° NNW 19:40:10 10° NNW
Okean 2 4.0 19:36:51 10° NNW 19:40:57 55° W 19:41:57 43° SW
Meteor 1-12 Rocket 4.2 19:37:28 10° S 19:43:27 81° E 19:49:25 10° N
Helios 1B rocket 3.1 19:39:46 10° N 19:43:50 54° WNW 19:47:52 10° SSW
BREEZE-M DEB (TANK) 4.4 19:41:23 10° NW 19:45:35 62° NE 19:47:14 51° E
Cosmos 468 Rocket 4.0 19:40:59 10° NNW 19:45:48 74° N 19:45:48 74° N
Resurs 01 Rocket 3.4 19:45:05 10° SSW 19:48:59 31° W 19:52:54 10° NW
Cosmos 2297 Rocket 2.5 19:46:02 10° SSW 19:50:18 53° S 19:50:18 53° S
Cosmos 962 Rocket 4.3 19:47:24 10° S 19:53:37 85° E 19:59:47 10° N
Cosmos 2237 Rocket 2.9 19:48:03 10° NNW 19:52:00 42° N 19:52:00 42° N
COSMOS 2428 3.9 19:49:57 10° NW 19:55:12 39° WSW 19:59:52 13° S
USA 229 DEB 4.0 19:55:37 10° NW 20:02:44 67° WSW 20:04:57 46° S
USA 229 4.0 19:55:43 10° NW 20:02:50 68° WSW 20:04:59 47° S
Atlas Centaur 2 3.5 19:58:54 10° SW 20:03:45 33° SSW 20:03:45 33° SSW
Cosmos 2219 Rocket 2.6 20:01:40 10° NNW 20:07:09 59° WSW 20:07:13 59° WSW
Cosmos 2227 Rocket 2.9 20:06:35 10° SW 20:12:03 50° WNW 20:13:32 40° NNW
NOSS 3-1 (A) 4.4 20:08:04 10° NNW 20:14:17 49° NNE 20:14:17 49° NNE
SL-16 R/B 4.4 20:23:22 10° N 20:24:27 16° N 20:24:27 16° N
NOSS 3-1 (C) 4.2 20:26:13 10° NNW 20:32:47 68° NNW 20:32:47 68° NNW
Cosmos 2333 Rocket 4.0 20:44:30 10° NW 20:48:02 27° WNW 20:48:02 27° WNW
